Location: Unspecified
(49.2170°N, 0.0000°E)
Time: 21:34:32
(UTC+00:00)

A-11 Canister half - Visible Passes

Search period start: 21 January 2021 00:00
Search period end: 31 January 2021 00:00
Orbit: 1517 x 1683 km, 47.2° (Epoch: 20 January)

Date Brightness Start Highest point End Pass type
(mag) Time Alt. Az. Time Alt. Az. Time Alt. Az.
21 Jan 10.7 02:58:44 16° SE 02:58:44 16° SE 03:00:17 10° SE visible
21 Jan 10.3 04:56:58 18° SSW 04:56:58 18° SSW 05:00:50 10° S visible
21 Jan 10.1 20:07:32 10° SSW 20:11:52 25° S 20:11:52 25° S visible
22 Jan 10.5 04:35:48 16° SSW 04:35:48 16° SSW 04:38:19 10° S visible
22 Jan 9.9 19:44:51 10° SSW 19:50:43 29° SSE 19:50:43 29° SSE visible
22 Jan 10.8 21:47:19 10° WSW 21:48:57 17° WSW 21:48:57 17° WSW visible
23 Jan 10.7 04:14:40 13° S 04:14:40 13° S 04:15:46 10° S visible
23 Jan 9.7 19:22:11 10° SSW 19:29:31 30° SE 19:29:31 30° SE visible
23 Jan 10.3 21:24:27 10° WSW 21:27:46 25° SW 21:27:46 25° SW visible
24 Jan 9.7 18:59:31 10° S 19:07:10 28° SE 19:08:18 28° SE visible
24 Jan 9.9 21:01:34 10° SW 21:06:32 35° SW 21:06:32 35° SW visible
25 Jan 9.8 18:36:53 10° S 18:44:22 27° SE 18:47:02 24° ESE visible
25 Jan 9.5 20:38:43 10° SW 20:45:15 46° SSW 20:45:15 46° SSW visible
25 Jan 11.1 22:43:08 10° W 22:43:29 11° W 22:43:29 11° W visible
26 Jan 10.0 18:14:16 10° S 18:21:33 25° SE 18:25:43 19° E visible
26 Jan 9.1 20:15:52 10° SW 20:23:56 56° S 20:23:56 56° S visible
26 Jan 10.7 22:20:13 10° W 22:22:10 18° W 22:22:10 18° W visible
27 Jan 10.1 17:51:40 10° S 17:58:44 24° SE 18:04:21 14° E visible
27 Jan 9.0 19:53:00 10° SW 20:02:12 57° SSE 20:02:34 57° SE visible
27 Jan 10.4 21:57:18 10° W 22:00:47 26° W 22:00:47 26° W visible
28 Jan 10.2 17:29:06 10° S 17:35:57 23° SE 17:42:40 10° E visible
28 Jan 9.0 19:30:10 10° SW 19:39:20 55° SSE 19:41:10 49° ESE visible
28 Jan 9.9 21:34:22 10° W 21:39:23 37° WSW 21:39:23 37° WSW visible
29 Jan 9.2 19:07:19 10° SW 19:16:29 53° SSE 19:19:43 39° E visible
29 Jan 9.5 21:11:27 10° WSW 21:17:55 49° WSW 21:17:55 49° WSW visible
30 Jan 9.2 18:44:30 10° SW 18:53:37 51° SSE 18:58:14 30° E visible
30 Jan 9.1 20:48:32 10° WSW 20:56:26 65° WSW 20:56:26 65° WSW visible
30 Jan 10.9 22:53:24 10° W 22:54:39 15° W 22:54:39 15° W visible
